Regional Weather Roundup
Issued by NWS

Home | Current Version | Previous Version | Text Only | Print | Product List | Glossary Off
Versions: 1 2 3 4 5 6 7 8 9 10 11 12 13 14 15 16 17 18 19 20 21 22 23 24 25 26 27 28 29 30 31 32 33 34 35 36 37 38 39 40 41 42 43 44 45 46 47 48 49 50

942
ASUS45 KSLC 010010
RWRUT

UTAH REGIONAL WEATHER ROUNDUP
NATIONAL WEATHER SERVICE SALT LAKE CITY UT
500 PM MST TUE FEB 28 2017

UTZ001>011-023>025-010100-

NORTHERN UTAH

CITY           SKY/WX    TMP DP  RH WIND       PRES   REMARKS
BRIGHAM CITY     N/A     34  22  60 S6        30.06R WCI  29
HILL AFB       PTSUNNY   28  23  80 S5        30.06R WCI  23
LOGAN          PTSUNNY   32  23  69 E3        30.04R
OGDEN          MOSUNNY   30  24  78 SW7       30.06R WCI  23
SALT LAKE CITY FLURRIES  32  27  81 N14       30.09R WCI  22
TOOELE VALLEY  PTSUNNY   36  23  60 SW9       30.08R WCI  29
WENDOVER       CLOUDY    37  12  35 NW14      30.08R WCI  29
HEBER CITY     CLOUDY    27  16  63 E6        30.00R WCI  20
WEST JORDAN    CLOUDY    33  32  96 N13G18    30.09R WCI  24

$$

UTZ011>015-024>027-010100-

CENTRAL/NORTHEAST UTAH

CITY           SKY/WX    TMP DP  RH WIND       PRES   REMARKS
PROVO AIRPORT  MOSUNNY   31  21  66 SE6       30.09R WCI  25
MOAB/CANYONLAN SUNNY     42   3  19 NW23      29.95R
DELTA          PTSUNNY   32  19  59 E3        30.09R
PRICE          MOSUNNY   30  12  47 W9        29.99R WCI  22
RICHFIELD      MOSUNNY   36   7  30 W7        30.08  WCI  30
ROOSEVELT      SUNNY     32  16  51 W22G28    30.00R WCI  19
VERNAL         CLOUDY    31  18  58 N7        29.97R WCI  24

$$

UTZ013>016-019>022-027-010100-

SOUTHERN UTAH

CITY           SKY/WX    TMP DP  RH WIND       PRES   REMARKS
BRYCE CANYON   MOSUNNY   28  10  46 NW21G29   29.98R WCI  15
CEDAR CITY     SUNNY     39   9  29 NW10      30.03R WCI  32
MILFORD        CLOUDY    38  14  37 NE9       30.05R WCI  31
ST GEORGE      PTCLDY    54  11  18 NW15      30.04R
HANKSVILLE     SUNNY     43   1  17 NW21G28   30.00R
KANAB          MOSUNNY   45  14  29 W9        30.06
BLANDING       MOSUNNY   38  24  57 NW7G16    30.00R WCI  33

$$

REGIONAL REPORTS     COLORADO/ARIZONA

CITY           SKY/WX    TMP DP  RH WIND       PRES   REMARKS
CRAIG, CO      CLOUDY    19   9  65 SW5       29.94R WCI  12
GRAND JUNCTION PTSUNNY   36  24  62 N6        29.94R WCI  31
RIFLE, CO      CLOUDY    33  13  43 W12       29.92R WCI  24
MONTROSE, CO   CLOUDY    32  25  75 N5        29.94R WCI  27
CORTEZ, CO     LGT SNOW  33  31  92 VRB5      29.94R FOG     WCI  29
COLORADO CITY    N/A     46  16  29 W14G23    30.06R
PAGE, AZ       SUNNY     49  11  21 W15G23    29.97R
GRAND CANYON   PTSUNNY   35  26  69 W7G17     30.03R WCI  29
KINGMAN, AZ    MOSUNNY   54  18  24 N13       30.06R
FLAGSTAFF, AZ  MOSUNNY   35  26  69 W7        30.03R WCI  29

$$

REGIONAL REPORTS    NEVADA/IDAHO/WYOMING

CITY           SKY/WX    TMP DP  RH WIND       PRES   REMARKS
LAS VEGAS, NV  MOSUNNY   60   6  11 NW12      30.03R
ELY, NY        MOSUNNY   29   8  41 NW14      30.08R WCI  18
ELKO, NV       CLOUDY    35  13  40 W15       30.09R WCI  25
POCATELLO, ID  MOSUNNY   29  21  72 SW24G31   29.99R WCI  15
BURLEY, ID     SUNNY     33  24  69 W13G24    30.03R WCI  24
FORT BRIDGER,  MOCLDY    20  13  75 W23G29    29.94R WCI   3
EVANSTON, WY   MIX PCPN  18  12  77 SW21      29.94R WCI   1
ROCK SPRINGS,  SUNNY     21  12  68 W22G31    29.89R WCI   5

$$




USA.gov is the U.S. government's official web portal to all federal, state and local government web resources and services.